When you browse on this site, cookies collect data to enhance your experience and personalize the content and advertising you see.
Visit our Privacy Policy to learn more. By continuing to use the site, you agree to this use of cookies and data.
  • In Sweden
  • List of Countries
  • For 7 days
  • Water Temperature
  • Weather Map
  • Weather Widgets
  • user-avatar
    Login

    Hourly Weather Chicopee

    Today, 21 August, Wednesday

    Time Temperature Precipitation Wind Pressure Humidity
    00:00 +20°C° 0 mm 0 mps 759 mmHg 84%
    01:00 +19°C° 0 mm 0 mps 759 mmHg 88%
    02:00 +19°C° 0 mm 0 mps 759 mmHg 90%
    03:00 +19°C° 0 mm 0 mps 758 mmHg 92%
    04:00 +19°C° 0 mm 0 mps 758 mmHg 93%
    05:00 +20°C° 0.3 mm 0 mps 758 mmHg 93%
    06:00 +23°C° 0.3 mm 1 mps 758 mmHg 93%
    07:00 +24°C° 0.3 mm 1 mps 758 mmHg 93%
    08:00 +26°C° 0.2 mm 1 mps 758 mmHg 84%
    09:00 +28°C° 0.2 mm 2 mps 757 mmHg 76%
    10:00 +30°C° 0.2 mm 3 mps 757 mmHg 67%
    11:00 +29°C° 1.1 mm 2 mps 757 mmHg 75%
    12:00 +29°C° 1.1 mm 2 mps 756 mmHg 82%
    13:00 +29°C° 1.1 mm 2 mps 756 mmHg 90%
    14:00 +28°C° 1.1 mm 2 mps 755 mmHg 90%
    15:00 +28°C° 1.1 mm 1 mps 755 mmHg 91%
    16:00 +27°C° 1.1 mm 1 mps 754 mmHg 92%
    17:00 +26°C° 3.9 mm 1 mps 754 mmHg 93%
    18:00 +25°C° 3.9 mm 2 mps 754 mmHg 95%
    19:00 +25°C° 3.9 mm 2 mps 754 mmHg 97%
    20:00 +24°C° 1.4 mm 2 mps 754 mmHg 97%
    21:00 +24°C° 1.4 mm 1 mps 754 mmHg 97%
    22:00 +23°C° 1.4 mm 1 mps 754 mmHg 97%
    23:00 +23°C° 0 mm 1 mps 754 mmHg 97%

    Tomorrow, 22 August, Thursday

    Time Temperature Precipitation Wind Pressure Humidity
    00:00 +23°C° 0 mm 1 mps 754 mmHg 97%
    01:00 +23°C° 0 mm 1 mps 754 mmHg 97%
    02:00 +22°C° 0 mm 1 mps 754 mmHg 97%
    03:00 +22°C° 0 mm 1 mps 754 mmHg 97%
    04:00 +22°C° 0 mm 1 mps 754 mmHg 97%
    05:00 +23°C° 0 mm 1 mps 754 mmHg 96%
    06:00 +23°C° 0 mm 1 mps 754 mmHg 95%
    07:00 +24°C° 0 mm 1 mps 755 mmHg 94%
    08:00 +27°C° 0 mm 1 mps 755 mmHg 82%
    09:00 +29°C° 0 mm 1 mps 755 mmHg 69%
    10:00 +31°C° 0 mm 2 mps 755 mmHg 56%
    11:00 +32°C° 0 mm 2 mps 755 mmHg 53%
    12:00 +34°C° 0 mm 3 mps 755 mmHg 49%
    13:00 +35°C° 0 mm 3 mps 754 mmHg 45%
    14:00 +34°C° 0 mm 3 mps 754 mmHg 50%
    15:00 +33°C° 0 mm 3 mps 754 mmHg 56%
    16:00 +32°C° 0 mm 4 mps 754 mmHg 61%
    17:00 +29°C° 0 mm 3 mps 754 mmHg 64%
    18:00 +28°C° 0 mm 3 mps 755 mmHg 67%
    19:00 +26°C° 0 mm 2 mps 755 mmHg 71%
    20:00 +25°C° 0 mm 2 mps 756 mmHg 70%
    21:00 +24°C° 0 mm 1 mps 756 mmHg 69%
    22:00 +23°C° 0 mm 1 mps 756 mmHg 68%
    23:00 +22°C° 0 mm 1 mps 756 mmHg 69%

    Day after tomorrow, 23 August, Friday

    Time Temperature Precipitation Wind Pressure Humidity
    00:00 +21°C° 0 mm 1 mps 756 mmHg 70%
    01:00 +20°C° 0 mm 1 mps 756 mmHg 71%
    02:00 +20°C° 0 mm 1 mps 756 mmHg 70%
    03:00 +20°C° 0 mm 1 mps 756 mmHg 69%
    04:00 +20°C° 0 mm 1 mps 756 mmHg 68%
    05:00 +20°C° 0 mm 1 mps 757 mmHg 70%
    06:00 +20°C° 0 mm 1 mps 757 mmHg 72%
    07:00 +20°C° 0 mm 1 mps 758 mmHg 74%
    08:00 +21°C° 0 mm 2 mps 758 mmHg 66%
    09:00 +23°C° 0 mm 2 mps 758 mmHg 59%
    10:00 +25°C° 0 mm 3 mps 758 mmHg 51%
    11:00 +26°C° 0 mm 3 mps 757 mmHg 47%
    12:00 +27°C° 0 mm 3 mps 757 mmHg 44%
    13:00 +28°C° 0 mm 4 mps 757 mmHg 40%
    14:00 +27°C° 0 mm 3 mps 757 mmHg 42%
    15:00 +27°C° 0 mm 3 mps 757 mmHg 44%
    16:00 +27°C° 0 mm 3 mps 757 mmHg 46%
    17:00 +24°C° 0 mm 3 mps 757 mmHg 52%
    18:00 +21°C° 0 mm 2 mps 758 mmHg 58%
    19:00 +20°C° 0 mm 1 mps 758 mmHg 64%
    20:00 +19°C° 0 mm 1 mps 758 mmHg 67%
    21:00 +18°C° 0 mm 1 mps 759 mmHg 71%
    22:00 +18°C° 0 mm 1 mps 759 mmHg 74%
    23:00 +16°C° 0 mm 1 mps 759 mmHg 75%

    24 August, Saturday

    Time Temperature Precipitation Wind Pressure Humidity
    00:00 +15°C° 0 mm 1 mps 759 mmHg 76%
    01:00 +15°C° 0 mm 1 mps 759 mmHg 77%
    02:00 +14°C° 0 mm 1 mps 759 mmHg 78%
    03:00 +14°C° 0 mm 1 mps 759 mmHg 79%
    04:00 +13°C° 0 mm 1 mps 759 mmHg 81%
    05:00 +15°C° 0 mm 1 mps 760 mmHg 77%
    06:00 +16°C° 0 mm 1 mps 760 mmHg 73%
    07:00 +18°C° 0 mm 1 mps 761 mmHg 69%
    08:00 +19°C° 0 mm 2 mps 760 mmHg 61%
    09:00 +21°C° 0 mm 2 mps 760 mmHg 53%
    10:00 +24°C° 0 mm 3 mps 760 mmHg 44%
    11:00 +25°C° 0 mm 3 mps 760 mmHg 43%
    12:00 +26°C° 0 mm 2 mps 760 mmHg 41%
    13:00 +28°C° 0 mm 2 mps 760 mmHg 39%
    14:00 +27°C° 0 mm 2 mps 760 mmHg 42%
    15:00 +27°C° 0 mm 3 mps 760 mmHg 44%
    16:00 +26°C° 0 mm 3 mps 760 mmHg 47%
    17:00 +24°C° 0 mm 3 mps 760 mmHg 54%
    18:00 +21°C° 0 mm 2 mps 761 mmHg 62%
    19:00 +19°C° 0 mm 2 mps 761 mmHg 69%
    20:00 +18°C° 0 mm 2 mps 762 mmHg 72%
    21:00 +17°C° 0 mm 2 mps 762 mmHg 75%
    22:00 +16°C° 0 mm 2 mps 763 mmHg 78%
    23:00 +15°C° 0 mm 2 mps 763 mmHg 81%

    25 August, Sunday

    Time Temperature Precipitation Wind Pressure Humidity
    00:00 +15°C° 0 mm 1 mps 763 mmHg 85%
    01:00 +14°C° 0 mm 1 mps 763 mmHg 88%
    02:00 +14°C° 0 mm 1 mps 763 mmHg 89%
    03:00 +13°C° 0 mm 1 mps 763 mmHg 90%
    04:00 +13°C° 0 mm 1 mps 763 mmHg 91%
    05:00 +14°C° 0 mm 1 mps 763 mmHg 86%
    06:00 +16°C° 0 mm 1 mps 764 mmHg 82%
    07:00 +17°C° 0 mm 2 mps 764 mmHg 77%
    08:00 +19°C° 0 mm 2 mps 764 mmHg 70%
    09:00 +21°C° 0 mm 2 mps 764 mmHg 62%
    10:00 +24°C° 0 mm 2 mps 765 mmHg 54%
    11:00 +25°C° 0 mm 2 mps 764 mmHg 52%
    12:00 +26°C° 0 mm 2 mps 764 mmHg 49%
    13:00 +26°C° 0 mm 2 mps 764 mmHg 47%
    14:00 +26°C° 0 mm 2 mps 764 mmHg 51%
    15:00 +25°C° 0 mm 2 mps 764 mmHg 56%
    16:00 +24°C° 0 mm 2 mps 764 mmHg 60%
    17:00 +21°C° 0 mm 2 mps 764 mmHg 68%
    18:00 +20°C° 0 mm 2 mps 764 mmHg 77%
    19:00 +18°C° 0 mm 2 mps 765 mmHg 85%
    20:00 +18°C° 0 mm 1 mps 765 mmHg 89%
    21:00 +16°C° 0 mm 1 mps 765 mmHg 93%
    22:00 +15°C° 0 mm 1 mps 766 mmHg 96%
    23:00 +15°C° 0 mm 1 mps 766 mmHg 96%

    26 August, Monday

    Time Temperature Precipitation Wind Pressure Humidity
    00:00 +14°C° 0 mm 1 mps 766 mmHg 96%
    01:00 +14°C° 0 mm 1 mps 766 mmHg 96%
    02:00 +13°C° 0 mm 1 mps 766 mmHg 97%
    03:00 +13°C° 0 mm 1 mps 766 mmHg 97%
    04:00 +12°C° 0 mm 1 mps 766 mmHg 97%
    05:00 +13°C° 0 mm 1 mps 766 mmHg 94%
    06:00 +14°C° 0 mm 1 mps 766 mmHg 91%
    07:00 +14°C° 0 mm 1 mps 766 mmHg 88%
    08:00 +17°C° 0 mm 2 mps 766 mmHg 77%
    09:00 +19°C° 0 mm 2 mps 766 mmHg 65%
    10:00 +21°C° 0 mm 2 mps 766 mmHg 54%
    11:00 +23°C° 0 mm 2 mps 766 mmHg 51%
    12:00 +24°C° 0 mm 3 mps 766 mmHg 49%
    13:00 +25°C° 0 mm 3 mps 765 mmHg 46%
    14:00 +25°C° 0 mm 3 mps 765 mmHg 49%
    15:00 +25°C° 0 mm 3 mps 765 mmHg 52%
    16:00 +25°C° 0 mm 3 mps 765 mmHg 55%
    17:00 +23°C° 0 mm 2 mps 765 mmHg 63%
    18:00 +20°C° 0 mm 2 mps 765 mmHg 71%
    19:00 +18°C° 0 mm 2 mps 765 mmHg 79%
    20:00 +17°C° 0 mm 2 mps 765 mmHg 83%
    21:00 +16°C° 0 mm 2 mps 766 mmHg 88%
    22:00 +15°C° 0 mm 1 mps 766 mmHg 93%
    23:00 +15°C° 0 mm 1 mps 765 mmHg 94%
    Show more